Вернуться в каталог

COSMOS 2400

АктивенВоенныеPO
NORAD 27868·PAYLOAD·🇷🇺 Russia

Запущен Aug 19, 2003 с Plesetsk Cosmodrome

Loading…

Ближайшие Пролёты (ближайшие 24 часа)

TLE

СвежийSource: Space-Track

Эпоха: Sep 14, 2026, 21:26 UTC

1 27868U 03037A   26257.89326045 -.00000015  00000-0 -17672-3 0  9997
2 27868  82.4654 273.5988 0020718 216.5459 143.4210 12.45191478 48700

Отслеживайте COSMOS 2400 в реальном времени с AllMySat

Download on the App Store